Regional Weather Roundup
Issued by NWS

Home | Current Version | Previous Version | Graphics & Text | Print | Product List | Glossary On
Versions: 1 2 3 4 5 6 7 8 9 10 11 12 13 14 15 16 17 18 19 20 21 22 23 24 25 26 27 28 29 30 31 32 33 34 35 36 37 38 39 40 41 42 43 44 45 46 47 48 49 50
000
ASUS43 KLSX 031359
RWRMO

WEATHER SUMMARY FOR MISSOURI
NATIONAL WEATHER SERVICE SPRINGFIELD MO
900 AM CDT SUN MAY 03 2015

NOTE: "FAIR" INDICATES FEW OR NO CLOUDS BELOW 12,000 FEET WITH NO
       SIGNIFICANT WEATHER AND/OR OBSTRUCTIONS TO VISIBILITY.
       CURRENT SKY AND/OR WEATHER CONDITIONS ARE NOT AVAILABLE FOR
       CHILLICOTHE AND FARMINGTON.

MOZ001>031-035>038-043-044-053-054-031500-
...NORTHERN AND WESTERN MISSOURI...

CITY           SKY/WX    TMP DP  RH WIND       PRES   REMARKS
KANSAS CTY INT PTSUNNY   66  55  67 S16       29.86S
KANSAS C DTWN  CLOUDY    67  53  61 S15G25    29.87R
LEE`S SUMMIT   CLOUDY    64  52  64 S13G21    29.90S
ST JOSEPH      MOSUNNY   69  57  65 S17       29.84S
CHILLICOTHE      N/A     68  55  63 S12G18    29.90R
KIRKSVILLE     PTSUNNY   66  54  65 S15G23    29.90F

$$
MOZ066>068-077>081-088>096-101>105-031500-
...SOUTHWEST MISSOURI...

CITY           SKY/WX    TMP DP  RH WIND       PRES   REMARKS
SPRINGFIELD    PTSUNNY   65  51  60 S15       30.01S
JOPLIN         PTSUNNY   68  53  58 S16G24    29.98R

$$
MOZ032>034-039>042-045>050-055>058-069>072-031500-
...CENTRAL MISSOURI...

CITY           SKY/WX    TMP DP  RH WIND       PRES   REMARKS
COLUMBIA       PTSUNNY   65  51  60 S10       29.99R
JEFFERSON CITY PTSUNNY   67  50  54 SE9       29.99F
ROLLA          PTSUNNY   65  50  58 S9        30.01S
SEDALIA        PTSUNNY   70  52  52 SW16G28   29.96S
OSAGE BEACH    PTSUNNY   64  50  59 SE6       30.00F

$$
MOZ051-052-059>065-031500-
...EAST CENTRAL MISSOURI...

CITY           SKY/WX    TMP DP  RH WIND       PRES   REMARKS
ST LOUIS INTL  NOT AVBL
SPIRIT OF STL  MOSUNNY   68  48  48 SW9       30.02R
ST CHARLES     SUNNY     69  47  45 SW12      30.02R

$$
MOZ072>076-082>087-097>100-106>115-031500-
...SOUTH CENTRAL AND SOUTHEAST MISSOURI...

CITY           SKY/WX    TMP DP  RH WIND       PRES   REMARKS
CAPE GIRARDEAU MOSUNNY   67  49  52 SW7       30.09R
FARMINGTON     CLOUDY    64  45  48 S8        30.11R
POPLAR BLUFF   PTSUNNY   64  48  56 SW6       30.08R
WEST PLAINS    PTSUNNY   64  44  48 SW6       30.08R

$$



USA.gov is the U.S. government's official web portal to all federal, state and local government web resources and services.